Lewistown, MT

5:43 PM MDT on April 29, 2017 (GMT -0600)
Lewistown Municipal

Weather History for KLWT - November, 2012

Change the Weather History Date:

Tuesday, November 13, 2012

  Actual Average Record
Temperature  
Mean Temperature 32 °F 33 °F  
Max Temperature 38 °F 44 °F 81 °F (1905)
Min Temperature 25 °F 22 °F -25 °F (1959)
Degree Days  
Heating Degree Days 33 32  
Month to date heating degree days 411 383  
Since 1 July heating degree days 1433 1521  
Cooling Degree Days 0 0  
Month to date cooling degree days 0 0  
Year to date cooling degree days 314 210  
Moisture  
Dew Point 24 °F    
Average Humidity 71    
Maximum Humidity 78    
Minimum Humidity 64    
Precipitation  
Precipitation 0.00 in 0.02 in 0.20 in (1989)
Month to date precipitation 0.43 0.31  
Year to date precipitation 14.82 15.79  
Snow  
Snow 0.00 in - - ()
Snow Depth 7.00 in    
Sea Level Pressure  
Sea Level Pressure 30.17 in    
Wind  
Wind Speed 11 mph (WSW)    
Max Wind Speed 20 mph    
Max Gust Speed 24 mph    
Visibility 10 miles    
Events      
T = Trace of Precipitation, MM = Missing Value Source: NWS Daily Summary

Daily Weather History Graph

Daily Weather History Graph

Search for Another Location

Airport or City:

Trip Planner

Search our weather history database for the weather conditions in past years. The results will help you decide how hot, cold, wet, or windy it might be!

Date:

Astronomy

Nov. 13, 2012 Rise Set
Actual Time 7:19 AM MST 4:44 PM MST
Civil Twilight 6:46 AM MST 5:17 PM MST
Nautical Twilight 6:09 AM MST 5:54 PM MST
Astronomical Twilight 5:33 AM MST 6:30 PM MST
Moon 7:02 AM MST (11/13) 4:38 PM MST (11/13)
Length of Visible Light 10h 31m
Length of Day
9h 25m
Waning Crescent, 0% of the Moon is Illuminated
Nov 13
Waning Crescent
Nov 13
New
Nov 20
First Quarter
Nov 28
Full
Dec 6
Last Quarter

Hourly Weather History & Observations

Time (MST) Temp. Windchill Dew Point Humidity Pressure Visibility Wind Dir Wind Speed Gust Speed Precip Events Conditions
12:54 AM 33.1 °F 25.5 °F 26.1 °F 75% 30.16 in 10.0 mi WSW 9.2 mph - N/A   Mostly Cloudy
1:54 AM 33.1 °F 23.9 °F 26.1 °F 75% 30.16 in 10.0 mi West 12.7 mph - N/A   Overcast
2:54 AM 33.1 °F 24.4 °F 26.1 °F 75% 30.17 in 10.0 mi West 11.5 mph - N/A   Mostly Cloudy
3:54 AM 30.9 °F 22.2 °F 24.1 °F 76% 30.17 in 10.0 mi West 10.4 mph - N/A   Mostly Cloudy
4:54 AM 34.0 °F 23.0 °F 26.1 °F 73% 30.17 in 10.0 mi West 18.4 mph - N/A   Overcast
5:54 AM 32.0 °F 21.6 °F 26.1 °F 79% 30.19 in 10.0 mi SW 15.0 mph - N/A   Overcast
6:54 AM 32.0 °F 24.8 °F 25.0 °F 75% 30.20 in 10.0 mi SW 8.1 mph - N/A   Overcast
7:54 AM 32.0 °F 25.6 °F 24.1 °F 73% 30.20 in 10.0 mi West 6.9 mph - N/A   Overcast
8:54 AM 34.0 °F - 23.0 °F 64% 30.21 in 10.0 mi Calm Calm - N/A   Clear
9:54 AM 32.0 °F 24.8 °F 24.1 °F 73% 30.22 in 10.0 mi WSW 8.1 mph - N/A   Clear
10:54 AM 36.0 °F - 25.0 °F 64% 30.21 in 10.0 mi Calm Calm - N/A   Clear
11:54 AM 35.1 °F 27.4 °F 25.0 °F 67% 30.19 in 10.0 mi SW 10.4 mph - N/A   Clear
12:54 PM 37.0 °F 34.5 °F 27.0 °F 67% 30.18 in 10.0 mi SW 3.5 mph - N/A   Clear
1:54 PM 36.0 °F 30.3 °F 27.0 °F 70% 30.17 in 10.0 mi SW 6.9 mph - N/A   Clear
2:54 PM 35.1 °F 27.4 °F 27.0 °F 72% 30.17 in 10.0 mi SW 10.4 mph - N/A   Clear
3:54 PM 33.1 °F 27.7 °F 25.0 °F 72% 30.18 in 10.0 mi SW 5.8 mph - N/A   Clear
4:54 PM 34.0 °F 23.8 °F 24.1 °F 67% 30.16 in 10.0 mi WSW 16.1 mph - N/A   Clear
5:54 PM 32.0 °F 21.6 °F 24.1 °F 73% 30.17 in 10.0 mi SW 15.0 mph - N/A   Clear
6:54 PM 34.0 °F 24.2 °F 24.1 °F 67% 30.15 in 10.0 mi SW 15.0 mph - N/A   Clear
7:54 PM 30.9 °F 19.8 °F 23.0 °F 72% 30.16 in 10.0 mi SW 16.1 mph - N/A   Clear
8:54 PM 33.1 °F 22.2 °F 23.0 °F 66% 30.15 in 10.0 mi WSW 17.3 mph - N/A   Clear
9:54 PM 30.0 °F 19.5 °F 21.9 °F 72% 30.16 in 10.0 mi SW 13.8 mph - N/A   Clear
10:54 PM 30.9 °F 21.2 °F 21.9 °F 69% 30.13 in 10.0 mi SW 12.7 mph - N/A   Clear
11:54 PM 28.0 °F 18.6 °F 19.0 °F 69% 30.14 in 10.0 mi WSW 10.4 mph - N/A   Clear